Location: Los Gatos B&B
(42.6926°N, 77.0646°W)
Time: 15:59:14
(UTC-04:00)

Cosmos 2263 Rocket - Visible Passes

Search period start: 21 August 2014 00:00
Search period end: 31 August 2014 00:00
Orbit: 825 x 848 km, 71.0° (Epoch: 21 August)

Date Brightness Start Highest point End Pass type
(mag) Time Alt. Az. Time Alt. Az. Time Alt. Az.
21 Aug 5.1 05:32:19 10° N 05:35:42 16° NE 05:39:04 10° E visible
21 Aug 3.0 22:05:46 10° SW 22:11:16 53° WNW 22:16:47 10° NNE visible
21 Aug 5.3 23:55:57 10° NW 23:56:35 10° NW 23:57:13 10° NNW visible
22 Aug 5.2 05:15:52 10° N 05:19:00 15° NE 05:22:08 10° E visible
22 Aug 2.8 21:49:06 10° SW 21:54:38 57° WNW 22:00:12 10° NNE visible
22 Aug 5.3 23:38:24 10° NW 23:39:52 11° NW 23:41:20 10° NNW visible
23 Aug 5.2 04:59:26 10° NNE 05:02:19 14° NE 05:05:10 10° ENE visible
23 Aug 2.7 21:32:26 10° SW 21:38:01 62° WNW 21:43:36 10° NNE visible
23 Aug 5.3 23:21:11 10° WNW 23:23:09 12° NW 23:25:07 10° NNW visible
24 Aug 5.3 04:43:02 10° NNE 04:45:36 13° NE 04:48:10 10° ENE visible
24 Aug 2.6 21:15:47 10° SW 21:21:23 67° WNW 21:27:00 10° NNE visible
24 Aug 5.3 23:04:05 10° WNW 23:06:27 13° NW 23:08:48 10° NNW visible
25 Aug 5.4 04:26:41 10° NNE 04:28:54 12° NE 04:31:07 10° ENE visible
25 Aug 2.5 20:59:08 10° SSW 21:04:46 72° WNW 21:10:24 10° NNE visible
25 Aug 5.3 22:47:03 10° WNW 22:49:45 13° NW 22:52:26 10° NNW visible
26 Aug 5.5 04:10:24 10° NNE 04:12:12 11° NE 04:13:59 10° ENE visible
26 Aug 2.9 05:51:49 10° NNW 05:57:21 61° ENE 06:02:50 10° SE visible
26 Aug 2.4 20:42:30 10° SSW 20:48:09 78° WNW 20:53:48 10° NNE visible
26 Aug 5.2 22:30:04 10° WNW 22:33:03 14° NW 22:36:02 10° NNW visible
27 Aug 5.5 03:54:16 10° NNE 03:55:29 11° NE 03:56:42 10° NE visible
27 Aug 3.0 05:35:14 10° NNW 05:40:43 56° ENE 05:46:10 10° SE visible
27 Aug 2.3 20:25:53 10° SSW 20:31:32 84° WNW 20:37:11 10° NNE visible
27 Aug 5.2 22:13:07 10° W 22:16:21 15° NW 22:19:35 10° N visible
28 Aug 3.1 05:18:39 10° NNW 05:24:06 52° ENE 05:29:29 10° SE visible
28 Aug 2.3 20:09:16 10° SSW 20:14:55 90° ESE 20:20:34 10° NNE visible
28 Aug 5.2 21:56:12 10° W 21:59:40 16° NW 22:03:08 10° N visible
29 Aug 3.2 05:02:04 10° NNW 05:07:27 48° ENE 05:12:48 10° SE visible
29 Aug 5.1 21:39:18 10° W 21:42:58 18° NW 21:46:39 10° N visible
30 Aug 3.4 04:45:29 10° NNW 04:50:49 45° ENE 04:56:06 10° SE visible
30 Aug 5.0 21:22:25 10° W 21:26:18 19° NW 21:30:10 10° N visible
